Date,TemperatureHighF,TemperatureAvgF,TemperatureLowF,DewpointHighF,DewpointAvgF,DewpointLowF,HumidityHigh,HumidityAvg,HumidityLow,PressureMaxIn,PressureMinIn,WindSpeedMaxMPH,WindSpeedAvgMPH,GustSpeedMaxMPH,PrecipitationSumIn
2012-12-1,66,54,40,57,47,36,93,78,48,28.35,28.20,9,1,9,0.00
2012-12-2,68,49,34,54,38,32,95,70,34,28.44,28.14,9,2,9,0.00
2012-12-3,64,58,42,53,40,26,77,53,31,28.53,28.02,17,5,17,0.00
2012-12-4,64,43,28,28,21,15,69,44,23,28.73,28.53,9,1,9,0.00
2012-12-5,65,46,31,27,20,16,54,37,21,28.70,28.32,17,5,17,0.00
2012-12-6,56,47,35,42,30,20,74,51,35,28.38,28.26,13,3,13,0.00
2012-12-7,44,37,30,34,28,19,83,68,56,28.38,28.26,6,1,6,0.00
2012-12-8,51,37,25,38,29,20,87,74,45,28.41,28.23,8,2,8,0.00
2012-12-9,42,32,18,40,17,0,95,57,37,28.61,28.26,17,6,17,0.00
2012-12-10,38,21,8,9,-1,-9,49,38,26,28.61,28.35,14,4,14,0.00
2012-12-11,48,28,14,20,8,-3,52,41,30,28.53,28.38,10,1,10,0.00
2012-12-12,56,39,26,21,14,8,49,36,25,28.50,28.38,22,6,22,0.00
2012-12-13,60,43,33,24,18,13,49,36,25,28.47,28.38,15,3,15,0.00
2012-12-14,58,47,36,45,31,20,91,55,39,28.41,27.85,17,6,17,0.04
2012-12-15,57,47,35,46,38,30,91,73,47,28.14,27.82,16,4,16,0.00
2012-12-16,44,33,26,34,26,22,96,77,48,28.23,28.11,10,1,10,0.00
2012-12-17,56,37,25,32,24,16,91,63,28,28.23,27.99,9,2,9,0.00
2012-12-18,59,41,27,28,20,12,76,45,24,28.23,27.99,13,2,13,0.00
2012-12-19,46,41,30,34,28,16,96,62,44,28.23,27.91,23,5,23,0.04
2012-12-20,36,28,19,30,15,6,98,60,40,28.70,28.08,25,6,25,0.00
2012-12-21,44,23,12,23,13,4,77,65,38,28.73,28.56,4,0,4,0.00
2012-12-22,50,31,16,29,18,11,84,63,34,28.56,28.35,8,1,8,0.00
2012-12-23,31,24,17,20,15,12,81,70,57,28.44,28.35,9,3,9,0.00
2012-12-24,27,20,15,12,8,4,77,59,44,28.53,28.44,12,4,13,0.00
2012-12-25,19,16,11,9,2,-3,64,53,44,28.73,28.53,15,6,15,0.00
2012-12-26,28,16,6,8,0,-8,59,50,41,28.73,28.47,9,2,9,0.00
2012-12-27,34,26,16,20,15,5,75,63,46,28.50,28.26,11,3,11,0.00
2012-12-28,28,23,12,20,10,2,76,58,42,28.56,28.38,13,4,13,0.00
2012-12-29,44,22,6,19,7,-3,76,53,32,28.70,28.56,12,2,12,0.00
2012-12-30,49,35,0,20,15,0,61,44,29,28.67,28.47,17,5,17,0.00
2012-12-31,37,28,22,26,19,14,86,72,40,28.59,28.44,13,3,13,0.00